Weather History for Grand Rapids, MI

Change the Weather History Date:

Friday, March 16, 2012

  Actual Average Record
Temperature  
Mean Temperature 65 °F 36 °F  
Max Temperature 79 °F 44 °F 79 °F (2012)
Min Temperature 51 °F 27 °F 3 °F (1900)
Degree Days  
Heating Degree Days 0 30  
Month to date heating degree days 311 515  
Since 1 July heating degree days 4448 5292  
Cooling Degree Days 0 0  
Month to date cooling degree days 0 0  
Year to date cooling degree days 0 0  
Growing Degree Days 14 (Base 50)    
Moisture  
Dew Point 56 °F    
Average Humidity 74    
Maximum Humidity 100    
Minimum Humidity 48    
Precipitation  
Precipitation 0.11 in 0.07 in 1.50 in (1942)
Month to date precipitation 1.59 1.15  
Year to date precipitation 6.79 5.03  
Snow  
Snow T in 0.30 in 10.00 in (1895)
Month to date snowfall 2.8 5.6  
Since 1 July snowfall 51.2 70.4  
Snow Depth 0.00 in    
Sea Level Pressure  
Sea Level Pressure 30.06 in    
Wind  
Wind Speed 3 mph (ESE)    
Max Wind Speed 15 mph    
Max Gust Speed 20 mph    
Visibility 2 miles    
Events Fog , Thunderstorm    
T = Trace of Precipitation, MM = Missing Value Source: NWS Daily Summary

Daily Weather History Graph

Daily Weather History Graph

Search for Another Location

Airport:

Trip Planner

Search our weather history database for the weather conditions in past years. The results will help you decide how hot, cold, wet, or windy it might be!

Date:

Astronomy

Mar. 16, 2012 Rise Set
Actual Time 7:51 AM EDT 7:50 PM EDT
Civil Twilight 7:23 AM EDT 8:18 PM EDT
Nautical Twilight 6:50 AM EDT 8:51 PM EDT
Astronomical Twilight 6:16 AM EDT 9:25 PM EDT
Moon 4:17 AM EDT 2:02 PM EDT
Length of Visible Light 12h 55m
Length of Day
11h 58m
Waning Crescent, 33% of the Moon is Illuminated
Mar 16
Waning Crescent
Mar 22
New
Mar 30
First Quarter
Apr 6
Full
Apr 13
Last Quarter

Hourly Weather History & Observations

Time (EDT) Temp. Dew Point Humidity Pressure Visibility Wind Dir Wind Speed Gust Speed Precip Events Conditions
12:00 AM 57.2 °F 57.2 °F 100% 30.01 in 0.8 mi Calm Calm - N/A   Clear
12:03 AM 57.2 °F 57.2 °F 100% 30.02 in 0.2 mi Calm Calm - N/A Fog Fog
12:27 AM 55.4 °F 55.4 °F 100% 30.02 in 0.2 mi Calm Calm - N/A Fog Fog
12:38 AM 53.6 °F 53.6 °F 100% 30.01 in 0.2 mi Calm Calm - N/A Fog Fog
12:48 AM 53.6 °F 51.8 °F 94% 30.01 in 0.2 mi Calm Calm - N/A Fog Fog
12:53 AM 54.0 °F 52.0 °F 93% 30.01 in 0.2 mi Calm Calm - N/A Fog Fog
1:07 AM 53.6 °F 53.6 °F 100% 30.01 in 0.2 mi Calm Calm - N/A Fog Fog
1:17 AM 51.8 °F 51.8 °F 100% 30.01 in 0.2 mi NE 3.5 mph - N/A Fog Fog
1:25 AM 53.6 °F 51.8 °F 94% 30.01 in 0.2 mi NE 3.5 mph - N/A Fog Fog
1:39 AM 51.8 °F 51.8 °F 100% 30.01 in 0.2 mi NE 4.6 mph - N/A Fog Fog
1:53 AM 53.1 °F 52.0 °F 96% 30.01 in 0.2 mi Calm Calm - N/A Fog Fog
2:03 AM 51.8 °F 51.8 °F 100% 30.01 in 0.2 mi Calm Calm - N/A Fog Fog
2:53 AM 55.9 °F 55.0 °F 97% 30.01 in 0.2 mi SSW 3.5 mph - N/A Fog Fog
3:06 AM 53.6 °F 53.6 °F 100% 30.02 in 0.2 mi Calm Calm - N/A Fog Fog
3:37 AM 53.6 °F 51.8 °F 94% 30.02 in 0.2 mi SE 3.5 mph - N/A Fog Fog
3:53 AM 52.0 °F 52.0 °F 100% 30.03 in 0.2 mi Calm Calm - N/A Fog Fog
4:53 AM 51.1 °F 50.0 °F 96% 30.03 in 0.2 mi Calm Calm - N/A Fog Fog
5:53 AM 52.0 °F 51.1 °F 97% 30.04 in 0.2 mi NE 4.6 mph - N/A Fog Fog
6:53 AM 52.0 °F 51.1 °F 97% 30.05 in 0.2 mi NNE 3.5 mph - N/A Fog Fog
7:53 AM 53.1 °F 52.0 °F 96% 30.06 in 0.2 mi ENE 3.5 mph - N/A Fog Fog
8:22 AM 51.8 °F 51.8 °F 100% 30.07 in 0.1 mi ESE 4.6 mph - N/A Fog Fog
8:53 AM 53.1 °F 52.0 °F 96% 30.08 in 0.2 mi East 6.9 mph - N/A Fog Fog
9:17 AM 53.6 °F 51.8 °F 94% 30.08 in 0.1 mi ESE 6.9 mph - N/A Fog Fog
9:53 AM 54.0 °F 54.0 °F 100% 30.09 in 0.1 mi East 6.9 mph - N/A Fog Fog
10:49 AM 55.4 °F 55.4 °F 100% 30.10 in 0.1 mi East 5.8 mph - N/A Fog Fog
10:53 AM 55.9 °F 55.9 °F 100% 30.10 in 0.2 mi ESE 5.8 mph - N/A Fog Fog
11:53 AM 57.9 °F 57.9 °F 100% 30.11 in 0.2 mi SSE 4.6 mph - N/A Fog Fog
12:03 PM 59.0 °F 57.2 °F 94% 30.11 in 0.5 mi SE 3.5 mph - N/A Fog Fog
12:34 PM 59.0 °F 57.2 °F 94% 30.11 in 1.0 mi Calm Calm - N/A   Overcast
12:53 PM 60.1 °F 57.9 °F 93% 30.11 in 1.8 mi Calm Calm - N/A   Overcast
1:13 PM 60.8 °F 59.0 °F 94% 30.10 in 2.0 mi Calm Calm - N/A   Overcast
1:39 PM 62.6 °F 59.0 °F 88% 30.10 in 2.5 mi Calm Calm - N/A   Overcast
1:48 PM 64.4 °F 59.0 °F 83% 30.10 in 3.0 mi Calm Calm - N/A   Haze
1:53 PM 64.9 °F 59.0 °F 81% 30.10 in 3.0 mi Calm Calm - N/A   Haze
2:20 PM 66.2 °F 60.8 °F 83% 30.09 in 4.0 mi Calm Calm - N/A   Haze
2:53 PM 70.0 °F 60.1 °F 71% 30.07 in 5.0 mi Variable 3.5 mph - N/A   Haze
3:53 PM 75.0 °F 60.1 °F 60% 30.06 in 6.0 mi Variable 3.5 mph - N/A   Haze
4:53 PM 75.9 °F 59.0 °F 56% 30.05 in 7.0 mi Calm Calm - N/A   Partly Cloudy
5:53 PM 78.1 °F 57.9 °F 50% 30.04 in 8.0 mi Calm Calm - N/A   Partly Cloudy
6:53 PM 73.9 °F 60.1 °F 62% 30.04 in 8.0 mi ESE 6.9 mph - N/A   Scattered Clouds
7:53 PM 71.1 °F 60.1 °F 68% 30.06 in 7.0 mi SE 6.9 mph - N/A   Mostly Cloudy
7:57 PM 71.6 °F 60.8 °F 69% 30.05 in 7.0 mi ESE 5.8 mph - N/A Thunderstorm Thunderstorm
8:47 PM 66.2 °F 64.4 °F 94% 30.07 in 7.0 mi Calm Calm - 0.12 in   Mostly Cloudy
8:53 PM 66.0 °F 63.0 °F 90% 30.07 in 6.0 mi South 3.5 mph - 0.12 in   Mostly Cloudy
9:53 PM 64.0 °F 62.1 °F 93% 30.09 in 3.0 mi Calm Calm - N/A   Scattered Clouds
10:53 PM 61.0 °F 61.0 °F 100% 30.09 in 3.0 mi Calm Calm - N/A   Clear
11:06 PM 62.6 °F 60.8 °F 94% 30.08 in 2.5 mi South 4.6 mph - N/A   Clear
11:36 PM 60.8 °F 60.8 °F 100% 30.08 in 3.0 mi SSE 5.8 mph - N/A   Clear
11:53 PM 61.0 °F 61.0 °F 100% 30.08 in 4.0 mi South 5.8 mph - N/A   Clear